Location: ??????
(38.0677°N, 22.9870°E)
Time: 17:01:21
(UTC+00:00)

H-2A R/B - Pass Details

Date: 23 May 2024
Orbit: 553 x 571 km, 98.1° (Epoch: 23 June)

Event Time Altitude Azimuth Distance (km) Brightness Sun altitude
Rises 00:38:24 0° 4° (N) 2,749 7.9 -23.4°
Reaches altitude 10° 00:40:37 10° 357° (N) 1,846 6.7 -23.2°
Enters shadow 00:43:59 39° 304° (WNW) 837 4.1 -22.8°
